Chino, CA

7:51 PM PST on January 18, 2017 (GMT -0800)
Chino

Weather History for KCNO - November, 2013

Change the Weather History Date:

Friday, November 15, 2013

  Actual Average Record
Temperature  
Mean Temperature 58 °F -  
Max Temperature 68 °F 70 °F 89 °F (2007)
Min Temperature 48 °F 41 °F 33 °F (2000)
Degree Days  
Heating Degree Days 7    
Growing Degree Days 8 (Base 50)    
Moisture  
Dew Point 50 °F    
Average Humidity 73    
Maximum Humidity 100    
Minimum Humidity 49    
Precipitation  
Precipitation 0.00 in - - ()
Sea Level Pressure  
Sea Level Pressure 29.73 in    
Wind  
Wind Speed 3 mph (WNW)    
Max Wind Speed 9 mph    
Max Gust Speed -    
Visibility 6 miles    
Events      
Averages and records for this station are not official NWS values.
T = Trace of Precipitation, MM = Missing Value Source: NWS Daily Summary

Daily Weather History Graph

Daily Weather History Graph

Search for Another Location

Airport or City:

Trip Planner

Search our weather history database for the weather conditions in past years. The results will help you decide how hot, cold, wet, or windy it might be!

Date:

Astronomy

Nov. 15, 2013 Rise Set
Actual Time 6:23 AM PST 4:46 PM PST
Civil Twilight 5:56 AM PST 5:13 PM PST
Nautical Twilight 5:26 AM PST 5:43 PM PST
Astronomical Twilight 4:56 AM PST 6:13 PM PST
Moon 3:43 PM PST (11/15) 4:28 AM PST (11/15)
Length of Visible Light 11h 16m
Length of Day
10h 23m
Waxing Gibbous, 97% of the Moon is Illuminated
Nov 15
Waxing Gibbous
Nov 17
Full
Nov 25
Last Quarter
Dec 2
New
Dec 9
First Quarter

Hourly Weather History & Observations

Time (PST) Temp. Dew Point Humidity Pressure Visibility Wind Dir Wind Speed Gust Speed Precip Events Conditions
12:53 AM 57.0 °F 42.1 °F 57% 29.76 in 9.0 mi North 4.6 mph - N/A   Clear
1:53 AM 54.0 °F 41.0 °F 62% 29.75 in 7.0 mi Calm Calm - N/A   Clear
2:53 AM 51.1 °F 44.1 °F 77% 29.74 in 7.0 mi North 3.5 mph - N/A   Clear
3:53 AM 51.1 °F 41.0 °F 68% 29.73 in 7.0 mi Calm Calm - N/A   Clear
4:53 AM 52.0 °F 51.1 °F 97% 29.73 in 3.0 mi NNW 3.5 mph - N/A   Clear
5:03 AM 51.8 °F 50.0 °F 94% 29.75 in 2.5 mi NNW 4.6 mph - N/A   Clear
5:53 AM 51.1 °F 50.0 °F 96% 29.74 in 2.5 mi Calm Calm - N/A   Clear
6:17 AM 48.2 °F 48.2 °F 100% 29.74 in 1.8 mi East 4.6 mph - N/A   Clear
6:53 AM 51.1 °F 50.0 °F 96% 29.74 in 2.0 mi Calm Calm - N/A   Clear
7:53 AM 55.0 °F 50.0 °F 83% 29.76 in 3.0 mi Calm Calm - N/A   Haze
8:53 AM 61.0 °F 53.1 °F 75% 29.77 in 3.0 mi Calm Calm - N/A   Haze
9:53 AM 64.9 °F 51.1 °F 61% 29.77 in 6.0 mi Calm Calm - N/A   Haze
10:53 AM 68.0 °F 51.1 °F 55% 29.75 in 6.0 mi Calm Calm - N/A   Haze
11:53 AM 66.9 °F 50.0 °F 54% 29.71 in 6.0 mi Variable 5.8 mph - N/A   Haze
12:53 PM 66.9 °F 52.0 °F 59% 29.70 in 6.0 mi Calm Calm - N/A   Haze
1:53 PM 68.0 °F 48.9 °F 50% 29.69 in 6.0 mi Calm Calm - N/A   Haze
2:53 PM 68.0 °F 48.0 °F 49% 29.68 in 6.0 mi Calm Calm - N/A   Haze
3:53 PM 66.0 °F 53.1 °F 63% 29.68 in 10.0 mi WSW 9.2 mph - N/A   Mostly Cloudy
4:53 PM 64.0 °F 53.1 °F 67% 29.69 in 6.0 mi WSW 8.1 mph - N/A   Haze
5:53 PM 62.1 °F 53.1 °F 72% 29.70 in 10.0 mi West 5.8 mph - N/A   Mostly Cloudy
6:53 PM 61.0 °F 54.0 °F 78% 29.72 in 7.0 mi WNW 5.8 mph - N/A   Overcast
7:53 PM 61.0 °F 54.0 °F 78% 29.74 in 7.0 mi West 9.2 mph - N/A   Overcast
8:53 PM 60.1 °F 53.1 °F 78% 29.75 in 8.0 mi West 4.6 mph - N/A   Overcast
9:53 PM 60.1 °F 52.0 °F 75% 29.75 in 8.0 mi Calm Calm - N/A   Overcast
10:53 PM 60.1 °F 53.1 °F 78% 29.75 in 7.0 mi WNW 5.8 mph - N/A   Overcast
11:53 PM 59.0 °F 54.0 °F 83% 29.76 in 7.0 mi NW 4.6 mph - N/A   Overcast